Tracking 31027 objects as of 19-Jul-2025
HD Live streaming from Space Station
objects crossing your sky now

DELTA 1 DEB

Track DELTA 1 DEB now!
10-day predictions


NORAD ID: 10728
Int'l Code: 1975-027C
Perigee: 767.5 km
Apogee: 863.3 km
Inclination: 115.2 °
Period: 101.0 minutes
Semi major axis: 7186 km
RCS: 0.0701 m2 (small)
Launch date: April 9, 1975
Source: United States (US)
Launch site: AIR FORCE WESTERN TEST RANGE (AFWTR)

Note: This is SATELLITE DEBRIS
Your satellite tracking list
STARLINK-31611
Track 1 satellite(s)




NASA's NSSDC Master Catalog

Two Line Element Set (TLE):
1 10728U 75027C   25199.34946337  .00000059  00000-0  99144-4 0  9999
2 10728 115.2089 350.5577 0066608 240.7097 118.7313 14.25071840607451
Source of the keplerian elements: AFSPC